Track ONEWEB-0329 now! 10-day predictions ONEWEB-0329 is classified as:
1 49107U 21075AJ 22140.58334491 -.00045339 00000-0 -11735+0 0 9994 2 49107 87.9048 301.7635 0001839 108.5761 141.1275 13.17670555 1308